owner,sensor,date,latitude,longitude,relative_humidity,qcFlag 
COMPS,ioos:station:USF.COMPS:C12:1,2019-05-10T16:35:00,27.4980,-83.7220,90.5,11111222 
COMPS,ioos:station:USF.COMPS:C12:1,2019-05-10T17:35:00,27.4980,-83.7220,90.74,11111222 
COMPS,ioos:station:USF.COMPS:C12:1,2019-05-10T18:35:00,27.4980,-83.7220,90.2,11111222 
COMPS,ioos:station:USF.COMPS:C12:1,2019-05-10T19:35:00,27.4980,-83.7220,90.27,11111222 
COMPS,ioos:station:USF.COMPS:C12:1,2019-05-10T20:35:00,27.4980,-83.7220,89.19,11111222 
COMPS,ioos:station:USF.COMPS:C12:1,2019-05-10T21:35:00,27.4980,-83.7220,86.95,11111222 
COMPS,ioos:station:USF.COMPS:C12:1,2019-05-10T22:35:00,27.4980,-83.7220,86.56,11111222 
COMPS,ioos:station:USF.COMPS:C12:1,2019-05-10T23:35:00,27.4980,-83.7220,88.65,11111222 
COMPS,ioos:station:USF.COMPS:C12:1,2019-05-11T00:35:00,27.4980,-83.7220,88.94,11111222 
COMPS,ioos:station:USF.COMPS:C12:1,2019-05-11T01:35:00,27.4980,-83.7220,89.68,11111222 
COMPS,ioos:station:USF.COMPS:C12:1,2019-05-11T02:35:00,27.4980,-83.7220,90.07,11111222 
COMPS,ioos:station:USF.COMPS:C12:1,2019-05-11T03:35:00,27.4980,-83.7220,90.04,11111222 
COMPS,ioos:station:USF.COMPS:C12:1,2019-05-11T04:35:00,27.4980,-83.7220,87.63,11111222 
COMPS,ioos:station:USF.COMPS:C12:1,2019-05-11T05:35:00,27.4980,-83.7220,85.01,11111222 
COMPS,ioos:station:USF.COMPS:C12:1,2019-05-11T06:35:00,27.4980,-83.7220,85.45,11111222 
COMPS,ioos:station:USF.COMPS:C12:1,2019-05-11T07:35:00,27.4980,-83.7220,84.76,11111222 
COMPS,ioos:station:USF.COMPS:C12:1,2019-05-11T08:35:00,27.4980,-83.7220,87.45,11111222 
COMPS,ioos:station:USF.COMPS:C12:1,2019-05-11T09:35:00,27.4980,-83.7220,87.05,11111222 
COMPS,ioos:station:USF.COMPS:C12:1,2019-05-11T10:35:00,27.4980,-83.7220,90.51,11111222 
COMPS,ioos:station:USF.COMPS:C12:1,2019-05-11T11:35:00,27.4980,-83.7220,90.58,11111222 
COMPS,ioos:station:USF.COMPS:C12:1,2019-05-11T12:35:00,27.4980,-83.7220,91.19,11111222 
COMPS,ioos:station:USF.COMPS:C12:1,2019-05-13T13:35:00,27.4980,-83.7220,94.54,11111222 
COMPS,ioos:station:USF.COMPS:C12:1,2019-05-13T14:35:00,27.4980,-83.7220,95.33,11111222 
COMPS,ioos:station:USF.COMPS:C12:1,2019-05-13T15:35:00,27.4980,-83.7220,95.34,11111222 
COMPS,ioos:station:USF.COMPS:C12:1,2019-05-13T16:35:00,27.4980,-83.7220,93.76,11111222 
COMPS,ioos:station:USF.COMPS:C12:1,2019-05-13T17:35:00,27.4980,-83.7220,94.42,11111222 
COMPS,ioos:station:USF.COMPS:C12:1,2019-05-13T18:35:00,27.4980,-83.7220,89.47,11111222 
COMPS,ioos:station:USF.COMPS:C12:1,2019-05-13T19:35:00,27.4980,-83.7220,80.3,11111222 
COMPS,ioos:station:USF.COMPS:C12:1,2019-05-13T20:35:00,27.4980,-83.7220,65.28,11111222 
COMPS,ioos:station:USF.COMPS:C12:1,2019-05-13T21:35:00,27.4980,-83.7220,67.52,11111222 
COMPS,ioos:station:USF.COMPS:C12:1,2019-05-13T22:35:00,27.4980,-83.7220,65.78,11111222 
COMPS,ioos:station:USF.COMPS:C12:1,2019-05-13T23:35:00,27.4980,-83.7220,73.83,11111222 
COMPS,ioos:station:USF.COMPS:C12:1,2019-05-14T00:35:00,27.4980,-83.7220,77.95,11111222 
COMPS,ioos:station:USF.COMPS:C12:1,2019-05-14T01:35:00,27.4980,-83.7220,82.35,11111222 
COMPS,ioos:station:USF.COMPS:C12:1,2019-05-14T02:35:00,27.4980,-83.7220,86.42,11111222 
COMPS,ioos:station:USF.COMPS:C12:1,2019-05-14T03:35:00,27.4980,-83.7220,89.94,11111222 
COMPS,ioos:station:USF.COMPS:C12:1,2019-05-14T04:35:00,27.4980,-83.7220,91.78,11111222 
COMPS,ioos:station:USF.COMPS:C12:1,2019-05-14T05:35:00,27.4980,-83.7220,92.81,11111222 
COMPS,ioos:station:USF.COMPS:C12:1,2019-05-14T06:35:00,27.4980,-83.7220,92.07,11111222 
COMPS,ioos:station:USF.COMPS:C12:1,2019-05-14T07:35:00,27.4980,-83.7220,91.73,11111222 
COMPS,ioos:station:USF.COMPS:C12:1,2019-05-14T08:35:00,27.4980,-83.7220,91.09,11111222 
COMPS,ioos:station:USF.COMPS:C12:1,2019-05-14T09:35:00,27.4980,-83.7220,90.46,11111222 
COMPS,ioos:station:USF.COMPS:C12:1,2019-05-14T10:35:00,27.4980,-83.7220,92.28,11111222 
COMPS,ioos:station:USF.COMPS:C12:1,2019-05-14T11:35:00,27.4980,-83.7220,93.27,11111222 
COMPS,ioos:station:USF.COMPS:C12:1,2019-05-14T12:35:00,27.4980,-83.7220,93.31,11111222 
COMPS,ioos:station:USF.COMPS:C12:1,2019-05-14T13:35:00,27.4980,-83.7220,92.52,11111222 
COMPS,ioos:station:USF.COMPS:C12:1,2019-05-14T14:35:00,27.4980,-83.7220,91.11,11111222 
COMPS,ioos:station:USF.COMPS:C12:1,2019-05-14T15:35:00,27.4980,-83.7220,89.06,11111222 
COMPS,ioos:station:USF.COMPS:C12:1,2019-05-14T16:35:00,27.4980,-83.7220,85.52,11111222 
COMPS,ioos:station:USF.COMPS:C12:1,2019-05-14T17:35:00,27.4980,-83.7220,88.0,11111222 
COMPS,ioos:station:USF.COMPS:C12:1,2019-05-14T18:35:00,27.4980,-83.7220,83.82,11111222 
COMPS,ioos:station:USF.COMPS:C12:1,2019-05-14T19:35:00,27.4980,-83.7220,85.69,11111222 
COMPS,ioos:station:USF.COMPS:C12:1,2019-05-14T20:35:00,27.4980,-83.7220,83.54,11111222 
COMPS,ioos:station:USF.COMPS:C12:1,2019-05-14T21:35:00,27.4980,-83.7220,79.88,11111222 
COMPS,ioos:station:USF.COMPS:C12:1,2019-05-14T22:35:00,27.4980,-83.7220,79.76,11111222 
COMPS,ioos:station:USF.COMPS:C12:1,2019-05-14T23:35:00,27.4980,-83.7220,76.59,11111222 
COMPS,ioos:station:USF.COMPS:C12:1,2019-05-15T00:35:00,27.4980,-83.7220,74.53,11111222 
COMPS,ioos:station:USF.COMPS:C12:1,2019-05-15T01:35:00,27.4980,-83.7220,71.94,11111222 
COMPS,ioos:station:USF.COMPS:C12:1,2019-05-15T02:35:00,27.4980,-83.7220,73.22,11111222 
COMPS,ioos:station:USF.COMPS:C12:1,2019-05-15T03:35:00,27.4980,-83.7220,68.19,11111222 
COMPS,ioos:station:USF.COMPS:C12:1,2019-05-15T04:35:00,27.4980,-83.7220,71.12,11111222 
COMPS,ioos:station:USF.COMPS:C12:1,2019-05-15T05:35:00,27.4980,-83.7220,71.96,11111222 
COMPS,ioos:station:USF.COMPS:C12:1,2019-05-15T06:35:00,27.4980,-83.7220,68.61,11111222 
COMPS,ioos:station:USF.COMPS:C12:1,2019-05-15T07:35:00,27.4980,-83.7220,67.81,11111222 
COMPS,ioos:station:USF.COMPS:C12:1,2019-05-15T08:35:00,27.4980,-83.7220,68.16,11111222 
COMPS,ioos:station:USF.COMPS:C12:1,2019-05-15T09:35:00,27.4980,-83.7220,69.4,11111222 
COMPS,ioos:station:USF.COMPS:C12:1,2019-05-15T10:35:00,27.4980,-83.7220,70.76,11111222 
COMPS,ioos:station:USF.COMPS:C12:1,2019-05-15T11:35:00,27.4980,-83.7220,71.52,11111222 
COMPS,ioos:station:USF.COMPS:C12:1,2019-05-15T12:35:00,27.4980,-83.7220,73.3,11111222 
COMPS,ioos:station:USF.COMPS:C12:1,2019-05-15T13:35:00,27.4980,-83.7220,74.02,11111222 
COMPS,ioos:station:USF.COMPS:C12:1,2019-05-15T14:35:00,27.4980,-83.7220,74.22,11111222 
COMPS,ioos:station:USF.COMPS:C12:1,2019-05-15T15:35:00,27.4980,-83.7220,70.93,11111222 
COMPS,ioos:station:USF.COMPS:C12:1,2019-05-15T16:35:00,27.4980,-83.7220,67.86,11111222 
COMPS,ioos:station:USF.COMPS:C12:1,2019-05-15T17:35:00,27.4980,-83.7220,65.56,11111222 
COMPS,ioos:station:USF.COMPS:C12:1,2019-05-15T18:35:00,27.4980,-83.7220,63.86,11111222 
COMPS,ioos:station:USF.COMPS:C12:1,2019-05-15T19:35:00,27.4980,-83.7220,62.24,11111222 
COMPS,ioos:station:USF.COMPS:C12:1,2019-05-15T20:35:00,27.4980,-83.7220,62.58,11111222 
COMPS,ioos:station:USF.COMPS:C12:1,2019-05-15T21:35:00,27.4980,-83.7220,69.39,11111222 
COMPS,ioos:station:USF.COMPS:C12:1,2019-05-15T22:35:00,27.4980,-83.7220,72.12,11111222 
COMPS,ioos:station:USF.COMPS:C12:1,2019-05-15T23:35:00,27.4980,-83.7220,72.31,11111222 
COMPS,ioos:station:USF.COMPS:C12:1,2019-05-16T00:35:00,27.4980,-83.7220,71.7,11111222 
COMPS,ioos:station:USF.COMPS:C12:1,2019-05-16T01:35:00,27.4980,-83.7220,69.44,11111222 
COMPS,ioos:station:USF.COMPS:C12:1,2019-05-16T02:35:00,27.4980,-83.7220,68.45,11111222 
COMPS,ioos:station:USF.COMPS:C12:1,2019-05-16T03:35:00,27.4980,-83.7220,65.57,11111222 
COMPS,ioos:station:USF.COMPS:C12:1,2019-05-16T04:35:00,27.4980,-83.7220,66.56,11111222 
COMPS,ioos:station:USF.COMPS:C12:1,2019-05-16T05:35:00,27.4980,-83.7220,65.69,11111222 
COMPS,ioos:station:USF.COMPS:C12:1,2019-05-16T06:35:00,27.4980,-83.7220,66.71,11111222 
COMPS,ioos:station:USF.COMPS:C12:1,2019-05-16T07:35:00,27.4980,-83.7220,67.47,11111222 
COMPS,ioos:station:USF.COMPS:C12:1,2019-05-16T08:35:00,27.4980,-83.7220,68.46,11111222 
COMPS,ioos:station:USF.COMPS:C12:1,2019-05-16T09:35:00,27.4980,-83.7220,71.01,11111222 
COMPS,ioos:station:USF.COMPS:C12:1,2019-05-16T10:35:00,27.4980,-83.7220,72.84,11111222 
COMPS,ioos:station:USF.COMPS:C12:1,2019-05-16T11:35:00,27.4980,-83.7220,73.99,11111222 
COMPS,ioos:station:USF.COMPS:C12:1,2019-05-16T12:35:00,27.4980,-83.7220,76.31,11111222 
COMPS,ioos:station:USF.COMPS:C12:1,2019-05-16T13:35:00,27.4980,-83.7220,79.91,11111222 
COMPS,ioos:station:USF.COMPS:C12:1,2019-05-16T14:35:00,27.4980,-83.7220,83.55,11111222 
COMPS,ioos:station:USF.COMPS:C12:1,2019-05-16T15:35:00,27.4980,-83.7220,84.83,11111222 
COMPS,ioos:station:USF.COMPS:C12:1,2019-05-16T16:35:00,27.4980,-83.7220,84.0,11111222 
COMPS,ioos:station:USF.COMPS:C12:1,2019-05-16T17:35:00,27.4980,-83.7220,83.59,11111222 
COMPS,ioos:station:USF.COMPS:C12:1,2019-05-16T18:35:00,27.4980,-83.7220,82.23,11111222 
COMPS,ioos:station:USF.COMPS:C12:1,2019-05-16T19:35:00,27.4980,-83.7220,81.02,11111222 
COMPS,ioos:station:USF.COMPS:C12:1,2019-05-16T20:35:00,27.4980,-83.7220,79.78,11111222 
COMPS,ioos:station:USF.COMPS:C12:1,2019-05-16T21:35:00,27.4980,-83.7220,77.83,11111222 
COMPS,ioos:station:USF.COMPS:C12:1,2019-05-16T22:35:00,27.4980,-83.7220,78.67,11111222 
COMPS,ioos:station:USF.COMPS:C12:1,2019-05-16T23:35:00,27.4980,-83.7220,80.8,11111222 
COMPS,ioos:station:USF.COMPS:C12:1,2019-05-17T00:35:00,27.4980,-83.7220,81.82,11111222 
COMPS,ioos:station:USF.COMPS:C12:1,2019-05-17T01:35:00,27.4980,-83.7220,81.51,11111222 
COMPS,ioos:station:USF.COMPS:C12:1,2019-05-17T02:35:00,27.4980,-83.7220,81.73,11111222 
COMPS,ioos:station:USF.COMPS:C12:1,2019-05-17T03:35:00,27.4980,-83.7220,83.57,11111222 
COMPS,ioos:station:USF.COMPS:C12:1,2019-05-17T04:35:00,27.4980,-83.7220,84.44,11111222 
COMPS,ioos:station:USF.COMPS:C12:1,2019-05-17T05:35:00,27.4980,-83.7220,84.34,11111222 
COMPS,ioos:station:USF.COMPS:C12:1,2019-05-17T06:35:00,27.4980,-83.7220,84.36,11111222 
COMPS,ioos:station:USF.COMPS:C12:1,2019-05-17T07:35:00,27.4980,-83.7220,78.31,11111222 
COMPS,ioos:station:USF.COMPS:C12:1,2019-05-17T08:35:00,27.4980,-83.7220,78.66,11111222 
COMPS,ioos:station:USF.COMPS:C12:1,2019-05-17T09:35:00,27.4980,-83.7220,78.54,11111222 
COMPS,ioos:station:USF.COMPS:C12:1,2019-05-17T10:35:00,27.4980,-83.7220,78.35,11111222 
COMPS,ioos:station:USF.COMPS:C12:1,2019-05-17T11:35:00,27.4980,-83.7220,81.6,11111222 
COMPS,ioos:station:USF.COMPS:C12:1,2019-05-17T12:35:00,27.4980,-83.7220,81.7,11111222 
COMPS,ioos:station:USF.COMPS:C12:1,2019-05-17T13:35:00,27.4980,-83.7220,81.91,11111222 
COMPS,ioos:station:USF.COMPS:C12:1,2019-05-17T14:35:00,27.4980,-83.7220,80.63,11111222 
COMPS,ioos:station:USF.COMPS:C12:1,2019-05-17T15:35:00,27.4980,-83.7220,82.3,11111222 
COMPS,ioos:station:USF.COMPS:C12:1,2019-05-17T16:35:00,27.4980,-83.7220,79.75,11111222 
COMPS,ioos:station:USF.COMPS:C12:1,2019-05-17T17:35:00,27.4980,-83.7220,80.47,11111222 
COMPS,ioos:station:USF.COMPS:C12:1,2019-05-17T18:35:00,27.4980,-83.7220,78.89,11111222 
COMPS,ioos:station:USF.COMPS:C12:1,2019-05-17T19:35:00,27.4980,-83.7220,73.02,11111222 
COMPS,ioos:station:USF.COMPS:C12:1,2019-05-17T20:35:00,27.4980,-83.7220,69.16,11111222 
COMPS,ioos:station:USF.COMPS:C12:1,2019-05-17T21:35:00,27.4980,-83.7220,69.94,11111222 
COMPS,ioos:station:USF.COMPS:C12:1,2019-05-17T22:35:00,27.4980,-83.7220,64.76,11111222 
COMPS,ioos:station:USF.COMPS:C12:1,2019-05-17T23:35:00,27.4980,-83.7220,67.82,11111222 
COMPS,ioos:station:USF.COMPS:C12:1,2019-05-18T00:35:00,27.4980,-83.7220,72.29,11111222 
COMPS,ioos:station:USF.COMPS:C12:1,2019-05-18T01:35:00,27.4980,-83.7220,74.39,11111222 
COMPS,ioos:station:USF.COMPS:C12:1,2019-05-18T02:35:00,27.4980,-83.7220,75.39,11111222 
COMPS,ioos:station:USF.COMPS:C12:1,2019-05-18T03:35:00,27.4980,-83.7220,76.64,11111222 
COMPS,ioos:station:USF.COMPS:C12:1,2019-05-18T04:35:00,27.4980,-83.7220,77.75,11111222 
COMPS,ioos:station:USF.COMPS:C12:1,2019-05-18T05:35:00,27.4980,-83.7220,80.9,11111222 
COMPS,ioos:station:USF.COMPS:C12:1,2019-05-18T06:35:00,27.4980,-83.7220,80.89,11111222 
COMPS,ioos:station:USF.COMPS:C12:1,2019-05-18T07:35:00,27.4980,-83.7220,79.49,11111222 
COMPS,ioos:station:USF.COMPS:C12:1,2019-05-18T08:35:00,27.4980,-83.7220,78.6,11111222 
COMPS,ioos:station:USF.COMPS:C12:1,2019-05-18T09:35:00,27.4980,-83.7220,79.44,11111222 
COMPS,ioos:station:USF.COMPS:C12:1,2019-05-18T10:35:00,27.4980,-83.7220,81.36,11111222 
COMPS,ioos:station:USF.COMPS:C12:1,2019-05-18T11:35:00,27.4980,-83.7220,79.89,11111222 
COMPS,ioos:station:USF.COMPS:C12:1,2019-05-18T12:35:00,27.4980,-83.7220,80.14,11111222 
COMPS,ioos:station:USF.COMPS:C12:1,2019-05-18T13:35:00,27.4980,-83.7220,77.35,11111222 
COMPS,ioos:station:USF.COMPS:C12:1,2019-05-18T14:35:00,27.4980,-83.7220,77.31,11111222 
COMPS,ioos:station:USF.COMPS:C12:1,2019-05-18T15:35:00,27.4980,-83.7220,83.66,11111222 
COMPS,ioos:station:USF.COMPS:C12:1,2019-05-18T16:35:00,27.4980,-83.7220,79.83,11111222 
COMPS,ioos:station:USF.COMPS:C12:1,2019-05-18T17:35:00,27.4980,-83.7220,79.6,11111222 
COMPS,ioos:station:USF.COMPS:C12:1,2019-05-18T18:35:00,27.4980,-83.7220,78.82,11111222 
COMPS,ioos:station:USF.COMPS:C12:1,2019-05-18T19:35:00,27.4980,-83.7220,75.22,11111222 
COMPS,ioos:station:USF.COMPS:C12:1,2019-05-18T20:35:00,27.4980,-83.7220,72.65,11111222 
COMPS,ioos:station:USF.COMPS:C12:1,2019-05-18T21:35:00,27.4980,-83.7220,69.8,11111222 
COMPS,ioos:station:USF.COMPS:C12:1,2019-05-18T22:35:00,27.4980,-83.7220,70.21,11111222 
COMPS,ioos:station:USF.COMPS:C12:1,2019-05-18T23:35:00,27.4980,-83.7220,69.06,11111222 
COMPS,ioos:station:USF.COMPS:C12:1,2019-05-19T00:35:00,27.4980,-83.7220,70.02,11111222 
COMPS,ioos:station:USF.COMPS:C12:1,2019-05-19T01:35:00,27.4980,-83.7220,74.39,11111222 
COMPS,ioos:station:USF.COMPS:C12:1,2019-05-19T02:35:00,27.4980,-83.7220,76.25,11111222 
COMPS,ioos:station:USF.COMPS:C12:1,2019-05-19T03:35:00,27.4980,-83.7220,77.01,11111222 
COMPS,ioos:station:USF.COMPS:C12:1,2019-05-19T04:35:00,27.4980,-83.7220,79.02,11111222 
COMPS,ioos:station:USF.COMPS:C12:1,2019-05-19T05:35:00,27.4980,-83.7220,79.64,11111222 
COMPS,ioos:station:USF.COMPS:C12:1,2019-05-19T06:35:00,27.4980,-83.7220,81.85,11111222 
COMPS,ioos:station:USF.COMPS:C12:1,2019-05-19T07:35:00,27.4980,-83.7220,85.19,11111222 
COMPS,ioos:station:USF.COMPS:C12:1,2019-05-19T08:35:00,27.4980,-83.7220,87.35,11111222 
COMPS,ioos:station:USF.COMPS:C12:1,2019-05-19T09:35:00,27.4980,-83.7220,88.02,11111222 
COMPS,ioos:station:USF.COMPS:C12:1,2019-05-19T10:35:00,27.4980,-83.7220,90.11,11111222 
COMPS,ioos:station:USF.COMPS:C12:1,2019-05-19T11:35:00,27.4980,-83.7220,88.43,11111222 
COMPS,ioos:station:USF.COMPS:C12:1,2019-05-19T12:35:00,27.4980,-83.7220,84.69,11111222 
COMPS,ioos:station:USF.COMPS:C12:1,2019-05-19T13:35:00,27.4980,-83.7220,88.35,11111222 
COMPS,ioos:station:USF.COMPS:C12:1,2019-05-19T14:35:00,27.4980,-83.7220,89.24,11111222 
COMPS,ioos:station:USF.COMPS:C12:1,2019-05-19T15:35:00,27.4980,-83.7220,86.81,11111222 
COMPS,ioos:station:USF.COMPS:C12:1,2019-05-19T16:35:00,27.4980,-83.7220,87.86,11111222 
COMPS,ioos:station:USF.COMPS:C12:1,2019-05-19T17:35:00,27.4980,-83.7220,88.66,11111222 
COMPS,ioos:station:USF.COMPS:C12:1,2019-05-19T18:35:00,27.4980,-83.7220,88.37,11111222 
COMPS,ioos:station:USF.COMPS:C12:1,2019-05-19T19:35:00,27.4980,-83.7220,87.33,11111222 
COMPS,ioos:station:USF.COMPS:C12:1,2019-05-19T20:35:00,27.4980,-83.7220,86.58,11111222 
COMPS,ioos:station:USF.COMPS:C12:1,2019-05-19T21:35:00,27.4980,-83.7220,85.77,11111222 
COMPS,ioos:station:USF.COMPS:C12:1,2019-05-19T22:35:00,27.4980,-83.7220,81.97,11111222 
COMPS,ioos:station:USF.COMPS:C12:1,2019-05-19T23:35:00,27.4980,-83.7220,80.96,11111222 
COMPS,ioos:station:USF.COMPS:C12:1,2019-05-20T00:35:00,27.4980,-83.7220,84.81,11111222 
COMPS,ioos:station:USF.COMPS:C12:1,2019-05-20T01:35:00,27.4980,-83.7220,85.59,11111222 
COMPS,ioos:station:USF.COMPS:C12:1,2019-05-20T02:35:00,27.4980,-83.7220,83.86,11111222 
COMPS,ioos:station:USF.COMPS:C12:1,2019-05-20T03:35:00,27.4980,-83.7220,84.77,11111222 
COMPS,ioos:station:USF.COMPS:C12:1,2019-05-20T04:35:00,27.4980,-83.7220,84.92,11111222 
COMPS,ioos:station:USF.COMPS:C12:1,2019-05-20T05:35:00,27.4980,-83.7220,83.17,11111222 
COMPS,ioos:station:USF.COMPS:C12:1,2019-05-20T06:35:00,27.4980,-83.7220,84.61,11111222 
COMPS,ioos:station:USF.COMPS:C12:1,2019-05-20T07:35:00,27.4980,-83.7220,85.63,11111222 
COMPS,ioos:station:USF.COMPS:C12:1,2019-05-20T08:35:00,27.4980,-83.7220,87.23,11111222 
COMPS,ioos:station:USF.COMPS:C12:1,2019-05-20T09:35:00,27.4980,-83.7220,88.8,11111222 
COMPS,ioos:station:USF.COMPS:C12:1,2019-05-20T10:35:00,27.4980,-83.7220,87.15,11111222 
COMPS,ioos:station:USF.COMPS:C12:1,2019-05-20T11:35:00,27.4980,-83.7220,82.01,11111222 
COMPS,ioos:station:USF.COMPS:C12:1,2019-05-20T12:35:00,27.4980,-83.7220,82.59,11111222 
COMPS,ioos:station:USF.COMPS:C12:1,2019-05-20T13:35:00,27.4980,-83.7220,82.7,11111222 
COMPS,ioos:station:USF.COMPS:C12:1,2019-05-20T14:35:00,27.4980,-83.7220,83.54,11111222 
COMPS,ioos:station:USF.COMPS:C12:1,2019-05-20T15:35:00,27.4980,-83.7220,83.07,11111222 
COMPS,ioos:station:USF.COMPS:C12:1,2019-05-20T16:35:00,27.4980,-83.7220,81.85,11111222 
COMPS,ioos:station:USF.COMPS:C12:1,2019-05-20T17:35:00,27.4980,-83.7220,80.45,11111222 
COMPS,ioos:station:USF.COMPS:C12:1,2019-05-20T18:35:00,27.4980,-83.7220,80.75,11111222 
COMPS,ioos:station:USF.COMPS:C12:1,2019-05-20T19:35:00,27.4980,-83.7220,81.14,11111222 
COMPS,ioos:station:USF.COMPS:C12:1,2019-05-20T20:35:00,27.4980,-83.7220,81.76,11111222 
COMPS,ioos:station:USF.COMPS:C12:1,2019-05-20T21:35:00,27.4980,-83.7220,82.7,11111222 
COMPS,ioos:station:USF.COMPS:C12:1,2019-05-20T22:35:00,27.4980,-83.7220,83.34,11111222 
COMPS,ioos:station:USF.COMPS:C12:1,2019-05-20T23:35:00,27.4980,-83.7220,80.41,11111222 
COMPS,ioos:station:USF.COMPS:C12:1,2019-05-21T00:35:00,27.4980,-83.7220,81.6,11111222 
COMPS,ioos:station:USF.COMPS:C12:1,2019-05-21T01:35:00,27.4980,-83.7220,82.03,11111222 
COMPS,ioos:station:USF.COMPS:C12:1,2019-05-21T02:35:00,27.4980,-83.7220,82.97,11111222 
COMPS,ioos:station:USF.COMPS:C12:1,2019-05-21T03:35:00,27.4980,-83.7220,81.79,11111222 
COMPS,ioos:station:USF.COMPS:C12:1,2019-05-21T04:35:00,27.4980,-83.7220,80.15,11111222 
COMPS,ioos:station:USF.COMPS:C12:1,2019-05-21T05:35:00,27.4980,-83.7220,84.18,11111222 
COMPS,ioos:station:USF.COMPS:C12:1,2019-05-21T06:35:00,27.4980,-83.7220,84.93,11111222 
COMPS,ioos:station:USF.COMPS:C12:1,2019-05-21T07:35:00,27.4980,-83.7220,85.44,11111222 
COMPS,ioos:station:USF.COMPS:C12:1,2019-05-21T08:35:00,27.4980,-83.7220,87.15,11111222 
COMPS,ioos:station:USF.COMPS:C12:1,2019-05-21T09:35:00,27.4980,-83.7220,87.02,11111222 
COMPS,ioos:station:USF.COMPS:C12:1,2019-05-21T10:35:00,27.4980,-83.7220,87.43,11111222 
COMPS,ioos:station:USF.COMPS:C12:1,2019-05-21T11:35:00,27.4980,-83.7220,87.74,11111222 
COMPS,ioos:station:USF.COMPS:C12:1,2019-05-21T12:35:00,27.4980,-83.7220,87.24,11111222 
COMPS,ioos:station:USF.COMPS:C12:1,2019-05-21T13:35:00,27.4980,-83.7220,84.9,11111222 
COMPS,ioos:station:USF.COMPS:C12:1,2019-05-21T14:35:00,27.4980,-83.7220,80.59,11111222 
COMPS,ioos:station:USF.COMPS:C12:1,2019-05-21T15:35:00,27.4980,-83.7220,82.09,11111222 
COMPS,ioos:station:USF.COMPS:C12:1,2019-05-21T16:35:00,27.4980,-83.7220,83.79,11111222 
COMPS,ioos:station:USF.COMPS:C12:1,2019-05-21T17:35:00,27.4980,-83.7220,85.31,11111222 
COMPS,ioos:station:USF.COMPS:C12:1,2019-05-21T18:35:00,27.4980,-83.7220,87.9,11111222 
COMPS,ioos:station:USF.COMPS:C12:1,2019-05-21T19:35:00,27.4980,-83.7220,87.62,11111222 
COMPS,ioos:station:USF.COMPS:C12:1,2019-05-21T20:35:00,27.4980,-83.7220,86.37,11111222 
COMPS,ioos:station:USF.COMPS:C12:1,2019-05-21T21:35:00,27.4980,-83.7220,84.35,11111222 
COMPS,ioos:station:USF.COMPS:C12:1,2019-05-21T22:35:00,27.4980,-83.7220,83.83,11111222 
COMPS,ioos:station:USF.COMPS:C12:1,2019-05-21T23:35:00,27.4980,-83.7220,81.19,11111222 
COMPS,ioos:station:USF.COMPS:C12:1,2019-05-22T00:35:00,27.4980,-83.7220,82.63,11111222 
COMPS,ioos:station:USF.COMPS:C12:1,2019-05-22T01:35:00,27.4980,-83.7220,80.87,11111222 
COMPS,ioos:station:USF.COMPS:C12:1,2019-05-22T02:35:00,27.4980,-83.7220,80.9,11111222 
COMPS,ioos:station:USF.COMPS:C12:1,2019-05-22T03:35:00,27.4980,-83.7220,82.15,11111222 
COMPS,ioos:station:USF.COMPS:C12:1,2019-05-22T04:35:00,27.4980,-83.7220,83.97,11111222 
COMPS,ioos:station:USF.COMPS:C12:1,2019-05-22T05:35:00,27.4980,-83.7220,85.63,11111222 
COMPS,ioos:station:USF.COMPS:C12:1,2019-05-22T06:35:00,27.4980,-83.7220,86.94,11111222 
COMPS,ioos:station:USF.COMPS:C12:1,2019-05-22T07:35:00,27.4980,-83.7220,86.45,11111222 
COMPS,ioos:station:USF.COMPS:C12:1,2019-05-22T08:35:00,27.4980,-83.7220,86.81,11111222 
COMPS,ioos:station:USF.COMPS:C12:1,2019-05-22T09:35:00,27.4980,-83.7220,86.6,11111222 
COMPS,ioos:station:USF.COMPS:C12:1,2019-05-22T10:35:00,27.4980,-83.7220,87.76,11111222 
COMPS,ioos:station:USF.COMPS:C12:1,2019-05-22T11:35:00,27.4980,-83.7220,86.92,11111222 
COMPS,ioos:station:USF.COMPS:C12:1,2019-05-22T12:35:00,27.4980,-83.7220,81.87,11111222 
COMPS,ioos:station:USF.COMPS:C12:1,2019-05-22T13:35:00,27.4980,-83.7220,85.6,11111222 
COMPS,ioos:station:USF.COMPS:C12:1,2019-05-22T14:35:00,27.4980,-83.7220,85.64,11111222 
COMPS,ioos:station:USF.COMPS:C12:1,2019-05-22T15:35:00,27.4980,-83.7220,84.88,11111222 
COMPS,ioos:station:USF.COMPS:C12:1,2019-05-22T16:35:00,27.4980,-83.7220,82.16,11111222 
COMPS,ioos:station:USF.COMPS:C12:1,2019-05-22T17:35:00,27.4980,-83.7220,83.35,11111222 
COMPS,ioos:station:USF.COMPS:C12:1,2019-05-22T18:35:00,27.4980,-83.7220,84.04,11111222 
COMPS,ioos:station:USF.COMPS:C12:1,2019-05-22T19:35:00,27.4980,-83.7220,84.3,11111222 
COMPS,ioos:station:USF.COMPS:C12:1,2019-05-22T20:35:00,27.4980,-83.7220,86.33,11111222 
COMPS,ioos:station:USF.COMPS:C12:1,2019-05-22T21:35:00,27.4980,-83.7220,85.24,11111222 
COMPS,ioos:station:USF.COMPS:C12:1,2019-05-22T22:35:00,27.4980,-83.7220,82.69,11111222 
COMPS,ioos:station:USF.COMPS:C12:1,2019-05-22T23:35:00,27.4980,-83.7220,83.13,11111222 
COMPS,ioos:station:USF.COMPS:C12:1,2019-05-23T00:35:00,27.4980,-83.7220,82.88,11111222 
COMPS,ioos:station:USF.COMPS:C12:1,2019-05-23T01:35:00,27.4980,-83.7220,84.3,11111222 
COMPS,ioos:station:USF.COMPS:C12:1,2019-05-23T02:35:00,27.4980,-83.7220,86.39,11111222 
COMPS,ioos:station:USF.COMPS:C12:1,2019-05-23T03:35:00,27.4980,-83.7220,85.24,11111222 
COMPS,ioos:station:USF.COMPS:C12:1,2019-05-23T04:35:00,27.4980,-83.7220,72.2,11111222 
COMPS,ioos:station:USF.COMPS:C12:1,2019-05-23T05:35:00,27.4980,-83.7220,72.05,11111222 
COMPS,ioos:station:USF.COMPS:C12:1,2019-05-23T06:35:00,27.4980,-83.7220,73.7,11111222 
COMPS,ioos:station:USF.COMPS:C12:1,2019-05-23T07:35:00,27.4980,-83.7220,75.71,11111222 
COMPS,ioos:station:USF.COMPS:C12:1,2019-05-23T08:35:00,27.4980,-83.7220,78.53,11111222 
COMPS,ioos:station:USF.COMPS:C12:1,2019-05-23T09:35:00,27.4980,-83.7220,79.91,11111222 
COMPS,ioos:station:USF.COMPS:C12:1,2019-05-23T10:35:00,27.4980,-83.7220,81.9,11111222 
COMPS,ioos:station:USF.COMPS:C12:1,2019-05-23T11:35:00,27.4980,-83.7220,82.97,11111222 
COMPS,ioos:station:USF.COMPS:C12:1,2019-05-23T12:35:00,27.4980,-83.7220,83.8,11111222 
COMPS,ioos:station:USF.COMPS:C12:1,2019-05-23T13:35:00,27.4980,-83.7220,82.27,11111222 
COMPS,ioos:station:USF.COMPS:C12:1,2019-05-23T14:35:00,27.4980,-83.7220,80.71,11111222 
COMPS,ioos:station:USF.COMPS:C12:1,2019-05-23T15:35:00,27.4980,-83.7220,80.74,11111222 
COMPS,ioos:station:USF.COMPS:C12:1,2019-05-23T16:35:00,27.4980,-83.7220,80.78,11111222 
COMPS,ioos:station:USF.COMPS:C12:1,2019-05-23T17:35:00,27.4980,-83.7220,80.03,11111222 
COMPS,ioos:station:USF.COMPS:C12:1,2019-05-23T18:35:00,27.4980,-83.7220,77.67,11111222 
COMPS,ioos:station:USF.COMPS:C12:1,2019-05-23T19:35:00,27.4980,-83.7220,76.45,11111222 
COMPS,ioos:station:USF.COMPS:C12:1,2019-05-23T20:35:00,27.4980,-83.7220,76.08,11111222 
COMPS,ioos:station:USF.COMPS:C12:1,2019-05-23T21:35:00,27.4980,-83.7220,79.42,11111222 
COMPS,ioos:station:USF.COMPS:C12:1,2019-05-23T22:35:00,27.4980,-83.7220,77.0,11111222 
COMPS,ioos:station:USF.COMPS:C12:1,2019-05-23T23:35:00,27.4980,-83.7220,78.83,11111222 